[[{"header":{"parameterUnit":"m.s-1","parameterCategory":1,"la1":30.2991,"la2":30.254,"lo1":-89.0895,"lo2":-89.0444,"dy":0.0017,"dx":0.0017,"nx":28,"ny":28,"refTime":"2026-02-09T03:00:00:Z","depth":0,"parameterNumber":2,"parameterNumberName":"U-component_of_WINDS"},"data":[0,0,0,0,0,0,0,0,0,0,0,0,0,0,0,0,0,0,0,0,0,0,0,0,0,0,0,0,0,0,0,0,0,0,0,0,0,0,0,0,0,0,0,0,0,0,0,0,0,0,0,0,0,0,0,0,0,0,-1.0686,-1.0684,0,-1.0536,-1.0534,-1.0533,-1.0424,-1.0423,-1.0422,-1.0422,-1.0264,-1.026,-1.0257,0,0,0,0,0,0,0,0,0,0,0,0,0,-1.0874,-1.0871,-1.0686,-1.0684,-1.0682,-1.0536,-1.0534,-1.0532,-1.0424,-1.0423,-1.0422,-1.0421,-1.0265,-1.0261,-1.0257,0,0,0,0,0,0,0,0,0,0,0,0,0,-1.0765,-1.087,-1.0686,-1.0611,-1.0603,-1.0537,-1.0534,-1.0532,-1.0425,-1.0423,-1.0422,-1.0421,-1.0266,-1.0261,-1.0256,-1.0252,0,0,-1.0241,-1.0239,0,0,0,0,0,0,0,0,-1.0771,-1.0758,-1.0624,-1.0616,-1.0607,-1.0498,-1.0542,-1.0438,-1.0425,-1.0492,-1.0422,-1.042,-1.0342,-1.0331,-1.0306,-1.0245,-1.0238,-1.024,-1.0237,-1.0235,-1.0234,0,0,0,0,0,0,0,-1.0779,-1.0764,-1.0627,-1.0622,-1.0612,-1.0583,-1.0566,-1.0522,-1.0426,-1.0486,-1.0478,-1.0462,-1.0337,-1.0311,-1.0301,-1.0235,-1.024,-1.0236,-1.0233,-1.0231,-1.0161,-1.0162,0,0,0,0,0,0,-1.0799,-1.0771,-1.0631,-1.0622,-1.0688,-1.0581,-1.0562,-1.0534,-1.0427,-1.0409,-1.0463,-1.0457,-1.032,-1.0307,-1.0295,-1.0282,-1.0235,-1.023,-1.0227,-1.016,-1.0162,-1.0163,0,0,0,0,0,0,-1.0803,-1.0788,-1.0637,-1.0694,-1.0673,-1.0579,-1.0549,-1.0532,-1.0505,-1.0409,-1.0391,-1.0454,-1.0318,-1.0302,-1.0263,-1.0275,-1.0228,-1.0224,-1.0159,-1.0161,-1.0162,-1.0256,0,0,0,0,0,0,-1.0809,-1.079,-1.0788,-1.0695,-1.067,-1.061,-1.0549,-1.053,-1.0497,-1.0488,-1.0396,-1.0379,-1.0316,-1.0272,-1.0258,-1.0267,-1.022,-1.0157,-1.016,-1.0162,-1.0252,-1.0261,-1.0269,0,0,0,0,0,-1.0816,-1.082,-1.0789,-1.0773,-1.0667,-1.0611,-1.0597,-1.0525,-1.0499,-1.0495,-1.0434,-1.0382,-1.0276,-1.0269,-1.0253,-1.026,-1.0156,-1.0159,-1.0162,-1.0248,-1.0259,-1.0269,0,0,0,0,0,0,-1.0916,-1.0807,-1.0771,-1.0745,-1.0688,-1.0593,-1.0587,-1.054,-1.0488,-1.0482,-1.0394,-1.0374,-1.0344,-1.0298,-1.0292,-1.0249,-1.021,-1.0209,-1.0281,-1.0291,-1.0299,-1.031,-1.0215,0,0,0,0,0,-1.0935,-1.0901,-1.0806,-1.0792,-1.0766,-1.0682,-1.0655,-1.0605,-1.0542,-1.0517,-1.0452,-1.0392,-1.0344,-1.0315,-1.0266,-1.0245,-1.0222,-1.0242,-1.0251,-1.0258,-1.0259,-1.0242,-1.025,-1.0172,-1.0172,-1.0172,0,0,-1.0974,-1.091,-1.0893,-1.0811,-1.0761,-1.0725,-1.0662,-1.0627,-1.0599,-1.0511,-1.047,-1.0421,-1.0347,-1.0317,-1.03,-1.0278,-1.0275,-1.0262,-1.0269,-1.0264,-1.0246,-1.0253,-1.026,-1.0173,-1.0173,-1.0173,0,0,-1.1026,-1.0975,-1.0958,-1.0909,-1.0835,-1.0779,-1.0775,-1.0686,-1.0651,-1.0609,-1.0542,-1.0506,-1.0427,-1.0377,-1.0342,-1.0375,-1.0325,-1.0361,-1.0406,-1.0391,-1.0398,-1.0403,-1.0413,-1.0418,-1.0362,-1.0363,-1.0363,0,-1.1084,-1.1029,-1.0954,-1.0923,-1.0888,-1.0808,-1.0788,-1.0744,-1.0658,-1.0635,-1.0611,-1.051,-1.0454,-1.0411,-1.0419,-1.0393,-1.0384,-1.0371,-1.0403,-1.0407,-1.0411,-1.042,-1.0424,-1.0367,-1.0367,-1.0366,-1.0366,0,-1.1102,-1.1065,-1.1059,-1.0979,-1.0943,-1.0918,-1.0838,-1.0811,-1.0764,-1.071,-1.0668,-1.0599,-1.0534,-1.052,-1.0474,-1.0469,-1.0458,-1.042,-1.0378,-1.0424,-1.0431,-1.0434,-1.0374,-1.0373,-1.0371,-1.037,0,0,-1.1212,-1.1092,-1.1091,-1.1053,-1.0965,-1.0934,-1.0904,-1.0843,-1.082,-1.0763,-1.0735,-1.067,-1.0634,-1.0594,-1.0541,-1.0528,-1.0557,-1.0491,-1.0488,-1.0505,-1.0546,-1.0575,-1.058,-1.0524,-1.0524,-1.0524,-1.0552,0,-1.125,-1.1195,-1.1127,-1.1094,-1.1058,-1.0981,-1.0955,-1.0897,-1.0846,-1.0806,-1.0748,-1.0703,-1.066,-1.0635,-1.0619,-1.0557,-1.0564,-1.0554,-1.0495,-1.0494,-1.0515,-1.0584,-1.0614,-1.0643,-1.0554,-1.0555,-1.0555,0,-1.1287,-1.1235,-1.1199,-1.1114,-1.1096,-1.1074,-1.1011,-1.0975,-1.0908,-1.0871,-1.0826,-1.0769,-1.0732,-1.0696,-1.0643,-1.0638,-1.061,-1.0575,-1.0575,-1.0565,-1.0527,-1.0575,-1.0651,-1.0655,-1.0559,-1.0558,-1.0558,0,-1.137,-1.1291,-1.1259,-1.1229,-1.1129,-1.1115,-1.1072,-1.1004,-1.0971,-1.0915,-1.0893,-1.0834,-1.0801,-1.0756,-1.0684,-1.0664,-1.0638,-1.0596,-1.0605,-1.0607,-1.0602,-1.0603,-1.0673,-1.0586,-1.0586,-1.0586,-1.0586,0,-1.1419,-1.14,-1.1295,-1.1275,-1.125,-1.1172,-1.1149,-1.1099,-1.1038,-1.1006,-1.0936,-1.0906,-1.0814,-1.0773,-1.0716,-1.068,-1.0666,-1.0634,-1.0619,-1.064,-1.0644,-1.0619,-1.0615,-1.0587,-1.0587,-1.0586,-1.0586,0,-1.1507,-1.1437,-1.1396,-1.1305,-1.1281,-1.1267,-1.1188,-1.1165,-1.111,-1.107,-1.1055,-1.0968,-1.0916,-1.0841,-1.0766,-1.0727,-1.07,-1.0676,-1.0723,-1.0714,-1.0727,-1.0726,-1.0782,-1.0785,-1.0698,-1.0699,-1.07,0,-1.1543,-1.1526,-1.1433,-1.1408,-1.1368,-1.1327,-1.1293,-1.1214,-1.1181,-1.1103,-1.1089,-1.1032,-1.0983,-1.0904,-1.0832,-1.0774,-1.0748,-1.0771,-1.0738,-1.0759,-1.0746,-1.0748,-1.0745,-1.0779,-1.078,-1.0781,-1.0782,0,-1.1613,-1.1579,-1.1533,-1.1476,-1.1438,-1.1388,-1.1335,-1.1317,-1.1227,-1.1193,-1.1141,-1.1102,-1.1026,-1.097,-1.0903,-1.0856,-1.0804,-1.0794,-1.0792,-1.0813,-1.084,-1.0824,-1.0743,-1.0792,-1.0791,-1.079,-1.079,-1.079,-1.1674,-1.1656,-1.1588,-1.1539,-1.1491,-1.1443,-1.1417,-1.1359,-1.1314,-1.1247,-1.1202,-1.1152,-1.1083,-1.0987,-1.0943,-1.0901,-1.0879,-1.0877,-1.0877,-1.0877,-1.0884,-1.0848,-1.0888,-1.0888,-1.0887,-1.0887,-1.0887,0,-1.174,-1.1692,-1.1649,-1.1577,-1.1539,-1.1495,-1.1433,-1.1403,-1.136,-1.1301,-1.1254,-1.1193,-1.1138,-1.1062,-1.1001,-1.0982,-1.0956,-1.0969,-1.0968,-1.0958,-1.0908,-1.0915,-1.099,-1.099,-1.099,-1.099,-1.099,-1.099,-1.1769,-1.1735,-1.1693,-1.1633,-1.1585,-1.1536,-1.1504,-1.1459,-1.1411,-1.1347,-1.1301,-1.1253,-1.1186,-1.112,-1.1067,-1.1046,-1.1026,-1.1046,-1.1018,-1.0972,-1.0962,-1.0953,-1.0959,-1.1043,-1.1043,-1.1071,-1.1071,-1.1071]},{"header":{"parameterUnit":"m.s-1","parameterCategory":1,"la1":30.2991,"la2":30.254,"lo1":-89.0895,"lo2":-89.0444,"dy":0.0017,"dx":0.0017,"nx":28,"ny":28,"refTime":"2026-02-09T03:00:00:Z","depth":0,"parameterNumber":3,"parameterNumberName":"V-component_of_WINDS"},"data":[0,0,0,0,0,0,0,0,0,0,0,0,0,0,0,0,0,0,0,0,0,0,0,0,0,0,0,0,0,0,0,0,0,0,0,0,0,0,0,0,0,0,0,0,0,0,0,0,0,0,0,0,0,0,0,0,0,0,2.1814,2.1814,0,2.1818,2.1818,2.1818,2.1835,2.1835,2.1835,2.1836,2.1834,2.1833,2.1833,0,0,0,0,0,0,0,0,0,0,0,0,0,2.1818,2.1818,2.1814,2.1814,2.1814,2.1818,2.1818,2.1818,2.1834,2.1835,2.1835,2.1836,2.1834,2.1833,2.1833,0,0,0,0,0,0,0,0,0,0,0,0,0,2.1818,2.1818,2.1814,2.1823,2.1824,2.1818,2.1818,2.1818,2.1834,2.1835,2.1836,2.1836,2.1834,2.1833,2.1833,2.1816,0,0,2.183,2.183,0,0,0,0,0,0,0,0,2.1818,2.1818,2.1822,2.1823,2.1823,2.1826,2.1818,2.1817,2.1834,2.183,2.1836,2.1837,2.183,2.183,2.1829,2.1816,2.1816,2.183,2.183,2.183,2.183,0,0,0,0,0,0,0,2.1818,2.1818,2.1815,2.1822,2.1823,2.1826,2.1826,2.1818,2.1826,2.1831,2.1832,2.1832,2.1831,2.183,2.1829,2.1816,2.183,2.183,2.1829,2.1829,2.1791,2.179,0,0,0,0,0,0,2.1817,2.1818,2.1815,2.1815,2.1822,2.1825,2.1826,2.1825,2.1827,2.1828,2.1832,2.1833,2.183,2.183,2.1829,2.1811,2.183,2.1829,2.1829,2.1791,2.1791,2.179,0,0,0,0,0,0,2.1817,2.1817,2.1815,2.1817,2.1817,2.1824,2.1823,2.1824,2.1823,2.1828,2.1829,2.1829,2.1831,2.183,2.182,2.1811,2.1829,2.1828,2.1792,2.1791,2.179,2.1774,0,0,0,0,0,0,2.1817,2.1817,2.1812,2.1817,2.1817,2.1807,2.1822,2.1824,2.1823,2.1825,2.1826,2.1826,2.1831,2.1821,2.1819,2.1811,2.1828,2.1793,2.1792,2.1791,2.1776,2.1773,2.1771,0,0,0,0,0,2.1818,2.1805,2.1811,2.1811,2.181,2.1806,2.1806,2.1814,2.1822,2.1816,2.1819,2.1826,2.1813,2.182,2.1818,2.1809,2.1794,2.1792,2.1791,2.1777,2.1773,2.1771,0,0,0,0,0,0,2.1796,2.1806,2.1813,2.1802,2.1804,2.1809,2.1802,2.181,2.1808,2.1809,2.1817,2.1817,2.1806,2.1806,2.1814,2.1794,2.1804,2.1803,2.1794,2.1791,2.1789,2.1789,2.1827,0,0,0,0,0,2.179,2.1788,2.1796,2.1785,2.1786,2.1794,2.1792,2.1799,2.18,2.18,2.1802,2.1802,2.1798,2.1794,2.179,2.1776,2.1777,2.1769,2.1766,2.1764,2.1763,2.1756,2.1753,2.1785,2.1786,2.1786,0,0,2.1778,2.1783,2.178,2.1781,2.1783,2.178,2.1794,2.1789,2.1786,2.1798,2.179,2.1792,2.1792,2.178,2.1775,2.178,2.1754,2.1763,2.1761,2.176,2.1755,2.1752,2.1749,2.1785,2.1785,2.1785,0,0,2.1753,2.1757,2.175,2.1752,2.1756,2.1762,2.176,2.1765,2.1768,2.176,2.177,2.1766,2.1758,2.1758,2.1757,2.1735,2.1742,2.1734,2.172,2.1714,2.1712,2.171,2.1703,2.17,2.1732,2.1732,2.1732,0,2.1737,2.1733,2.1744,2.174,2.174,2.1754,2.1746,2.1747,2.1749,2.1748,2.1754,2.1747,2.1747,2.1737,2.1732,2.173,2.1728,2.1733,2.1712,2.171,2.1708,2.1701,2.1698,2.1731,2.1731,2.1731,2.1731,0,2.1713,2.171,2.1704,2.1708,2.1708,2.1701,2.1711,2.1709,2.1715,2.172,2.1712,2.1714,2.1712,2.171,2.1715,2.17,2.1704,2.1711,2.1721,2.1704,2.1698,2.1695,2.173,2.173,2.173,2.173,0,0,2.1673,2.1686,2.1684,2.1687,2.1693,2.1691,2.1685,2.1685,2.1684,2.1685,2.168,2.1675,2.1682,2.1681,2.1686,2.1681,2.1665,2.1689,2.1689,2.1685,2.165,2.1645,2.1642,2.167,2.167,2.1669,2.1651,0,2.1651,2.1644,2.1655,2.1645,2.1644,2.1658,2.1653,2.1656,2.1661,2.1659,2.1663,2.166,2.1669,2.1669,2.1664,2.1668,2.1658,2.167,2.1665,2.1665,2.1665,2.1639,2.1633,2.1615,2.1648,2.1648,2.1648,0,2.1623,2.1627,2.1617,2.1627,2.1626,2.1622,2.1624,2.1622,2.1626,2.163,2.163,2.1638,2.1633,2.1643,2.1636,2.1643,2.1642,2.1644,2.1644,2.1643,2.1655,2.1638,2.161,2.1607,2.1644,2.1644,2.1644,0,2.1597,2.1598,2.1594,2.1595,2.1606,2.1603,2.1606,2.1611,2.1611,2.1612,2.1613,2.1612,2.1612,2.1611,2.1618,2.1625,2.161,2.1621,2.1613,2.1613,2.1609,2.1609,2.158,2.1607,2.1608,2.1608,2.1608,0,2.1571,2.1565,2.1582,2.1579,2.1573,2.1585,2.1578,2.1583,2.1588,2.1586,2.1597,2.1594,2.1604,2.1602,2.1607,2.1601,2.16,2.1603,2.1604,2.1602,2.1602,2.1601,2.1603,2.1607,2.1607,2.1607,2.1607,0,2.1539,2.1551,2.1547,2.1558,2.1561,2.1556,2.1565,2.1562,2.1569,2.1566,2.1566,2.1575,2.1574,2.1582,2.158,2.1584,2.1575,2.1578,2.1574,2.1576,2.1567,2.1568,2.1537,2.1534,2.1563,2.1563,2.1562,0,2.1522,2.1519,2.153,2.1531,2.1535,2.1535,2.1536,2.1549,2.1549,2.1555,2.1551,2.1551,2.1552,2.1549,2.1555,2.1554,2.1558,2.1547,2.1558,2.1556,2.1559,2.1559,2.1559,2.1545,2.1544,2.1544,2.1544,0,2.1491,2.1497,2.1499,2.1504,2.1506,2.151,2.1514,2.1513,2.1526,2.1526,2.1527,2.1527,2.1528,2.1528,2.153,2.1532,2.154,2.1541,2.1539,2.1536,2.1535,2.1536,2.1569,2.1541,2.1541,2.1542,2.1542,2.1542,2.1466,2.1464,2.1473,2.1476,2.1481,2.1485,2.1484,2.1492,2.1493,2.1496,2.1503,2.1502,2.1507,2.1511,2.1513,2.1512,2.1517,2.1514,2.1513,2.1512,2.1511,2.1535,2.1512,2.1512,2.1512,2.1512,2.1512,0,2.1436,2.1443,2.1445,2.1453,2.1455,2.1465,2.1471,2.1471,2.1471,2.1476,2.1478,2.1479,2.1479,2.1487,2.1488,2.1486,2.1489,2.1486,2.1486,2.1486,2.1506,2.1508,2.1483,2.1483,2.1483,2.1483,2.1483,2.1483,2.142,2.1418,2.1426,2.1427,2.1434,2.1435,2.1438,2.1442,2.1446,2.1447,2.1449,2.1455,2.146,2.1463,2.1464,2.1466,2.1466,2.1461,2.1464,2.1482,2.1485,2.1487,2.1489,2.1461,2.1461,2.1444,2.1444,2.1444]}]]